Location: Diebersbach
(48.5163°N, 8.0558°E)
Time: 10:34:43
(UTC+00:00)

NOSS 2-2 (C) - Pass Details

Date: 20 June 2021
Orbit: 454 x 1753 km, 63.3° (Epoch: 25 July)

Event Time Altitude Azimuth Distance (km) Brightness Sun altitude
Exits shadow 02:21:49 - 245° (WSW) 1,652 5.2 -8.4°
Reaches altitude 10° 02:21:58 10° 245° (WSW) 1,594 5.1 -8.4°
Maximum altitude 02:25:15 43° 319° (NW) 688 3.9 -8.0°
Drops below altitude 10° 02:28:58 10° 33° (NNE) 1,809 7.6 -7.6°
Sets 02:31:29 0° 40° (NE) 2,850 9.7 -7.3°
